Adrian, MI

10:50 AM EST on February 20, 2017 (GMT -0500)
Lenawee County

Weather History for KADG - April, 2014

Change the Weather History Date:

Monday, April 14, 2014

  Actual Average Record
Temperature  
Mean Temperature 51 °F -  
Max Temperature 70 °F 59 °F 80 °F (2006)
Min Temperature 33 °F 35 °F 20 °F (1950)
Degree Days  
Heating Degree Days 14    
Growing Degree Days 1 (Base 50)    
Moisture  
Dew Point 41 °F    
Average Humidity 73    
Maximum Humidity 93    
Minimum Humidity 47    
Precipitation  
Precipitation 0.05 in - - ()
Sea Level Pressure  
Sea Level Pressure 29.67 in    
Wind  
Wind Speed 17 mph (NW)    
Max Wind Speed 29 mph    
Max Gust Speed 39 mph    
Visibility 9 miles    
Events Rain , Snow    
Averages and records for this station are not official NWS values.
T = Trace of Precipitation, MM = Missing Value Source: NWS Daily Summary

Daily Weather History Graph

Daily Weather History Graph

Search for Another Location

Airport or City:

Trip Planner

Search our weather history database for the weather conditions in past years. The results will help you decide how hot, cold, wet, or windy it might be!

Date:

Astronomy

Apr. 14, 2014 Rise Set
Actual Time 6:57 AM EDT 8:16 PM EDT
Civil Twilight 6:28 AM EDT 8:45 PM EDT
Nautical Twilight 5:54 AM EDT 9:19 PM EDT
Astronomical Twilight 5:17 AM EDT 9:56 PM EDT
Moon 7:53 PM EDT (4/14) 6:29 AM EDT (4/14)
Length of Visible Light 14h 16m
Length of Day
13h 18m
Full, 100% of the Moon is Illuminated
Apr 14
Full
Apr 15
Full
Apr 22
Last Quarter
Apr 29
New
May 6
First Quarter

Hourly Weather History & Observations

Time (EDT) Temp. Windchill Dew Point Humidity Pressure Visibility Wind Dir Wind Speed Gust Speed Precip Events Conditions
12:53 AM 69.1 °F - 50.0 °F 51% 29.61 in 10.0 mi SW 18.4 mph - N/A   Clear
1:53 AM 69.1 °F - 50.0 °F 51% 29.59 in 10.0 mi SW 17.3 mph 25.3 mph N/A   Clear
2:53 AM 69.1 °F - 48.0 °F 47% 29.55 in 10.0 mi SW 20.7 mph 29.9 mph N/A   Clear
3:53 AM 68.0 °F - 48.0 °F 49% 29.52 in 10.0 mi SSW 19.6 mph 28.8 mph N/A   Clear
5:53 AM 66.9 °F - 48.9 °F 52% 29.46 in 10.0 mi SSW 20.7 mph 28.8 mph 0.00 in   Overcast
8:53 AM 63.0 °F - 53.1 °F 70% 29.51 in 10.0 mi SW 28.8 mph 36.8 mph 0.00 in   Overcast
9:01 AM 63.0 °F - 54.0 °F 72% 29.52 in 10.0 mi WSW 23.0 mph 38.0 mph N/A   Overcast
9:53 AM 62.1 °F - 55.0 °F 78% 29.53 in 10.0 mi WSW 19.6 mph 39.1 mph N/A   Overcast
10:41 AM 62.1 °F - 55.0 °F 78% 29.55 in 10.0 mi West 19.6 mph 28.8 mph 0.00 in   Overcast
10:53 AM 61.0 °F - 55.0 °F 81% 29.55 in 9.0 mi West 21.9 mph 33.4 mph 0.00 in Rain Light Rain
11:53 AM 60.1 °F - 50.0 °F 69% 29.58 in 10.0 mi West 19.6 mph 29.9 mph 0.00 in   Partly Cloudy
12:25 PM 55.9 °F - 46.0 °F 69% 29.61 in 10.0 mi WNW 20.7 mph 29.9 mph N/A   Overcast
12:53 PM 53.1 °F - 43.0 °F 69% 29.63 in 10.0 mi WNW 16.1 mph 25.3 mph N/A   Overcast
1:09 PM 53.1 °F - 42.1 °F 66% 29.63 in 10.0 mi WNW 18.4 mph 25.3 mph N/A   Overcast
2:53 PM 52.0 °F - 37.9 °F 59% 29.67 in 10.0 mi WNW 17.3 mph 24.2 mph N/A   Overcast
3:53 PM 50.0 °F - 37.9 °F 63% 29.68 in 10.0 mi NW 13.8 mph - N/A   Overcast
4:39 PM 50.0 °F - 37.9 °F 63% 29.69 in 10.0 mi NNW 15.0 mph - N/A   Overcast
5:13 PM 46.9 °F - 36.0 °F 66% 29.70 in 10.0 mi NNW 15.0 mph - N/A   Overcast
5:42 PM 46.9 °F - 36.0 °F 66% 29.71 in 10.0 mi NW 10.4 mph - N/A   Overcast
5:53 PM 46.9 °F - 36.0 °F 66% 29.71 in 10.0 mi North 9.2 mph - N/A   Overcast
6:24 PM 46.0 °F 40.6 °F 34.0 °F 63% 29.71 in 10.0 mi NNW 11.5 mph - N/A   Overcast
6:53 PM 45.0 °F 39.7 °F 35.1 °F 68% 29.72 in 10.0 mi North 10.4 mph - N/A   Overcast
7:20 PM 45.0 °F 40.6 °F 35.1 °F 68% 29.71 in 10.0 mi North 8.1 mph - N/A   Overcast
7:53 PM 44.1 °F 38.6 °F 35.1 °F 71% 29.74 in 10.0 mi NNW 10.4 mph - N/A   Overcast
8:53 PM 41.0 °F 36.4 °F 37.9 °F 89% 29.76 in 8.0 mi NNW 6.9 mph - 0.00 in Rain Light Rain
9:25 PM 41.0 °F 35.8 °F 39.0 °F 93% 29.77 in 3.0 mi NW 8.1 mph - 0.00 in Rain Light Rain
9:38 PM 39.9 °F 32.9 °F 37.9 °F 93% 29.77 in 5.0 mi North 11.5 mph - 0.00 in Rain Light Rain
9:50 PM 39.2 °F 31.2 °F 37.4 °F 93% 29.76 in 6.0 mi North 13.8 mph - 0.01 in Rain Light Rain
9:53 PM 39.0 °F 30.6 °F 37.0 °F 93% 29.78 in 7.0 mi NNW 15.0 mph - 0.01 in Rain Light Rain
10:08 PM 39.0 °F 31.0 °F 36.0 °F 89% 29.78 in 7.0 mi North 13.8 mph 23.0 mph 0.01 in Rain Light Rain
10:36 PM 37.9 °F 30.0 °F 35.1 °F 89% 29.79 in 7.0 mi NNW 12.7 mph - 0.02 in Rain Light Rain
10:53 PM 35.1 °F 25.2 °F 33.1 °F 92% 29.79 in 7.0 mi North 16.1 mph - 0.04 in Snow Light Snow
11:24 PM 34.0 °F 24.6 °F 32.0 °F 92% 29.80 in 4.0 mi North 13.8 mph 21.9 mph 0.00 in Snow Light Snow
11:45 PM 33.1 °F 21.5 °F 30.0 °F 89% 29.80 in 4.0 mi North 19.6 mph 26.5 mph 0.00 in Snow Light Snow
11:53 PM 33.1 °F 20.3 °F 30.0 °F 89% 29.82 in 3.0 mi North 24.2 mph 31.1 mph 0.00 in Snow Light Snow